Погода Макушино

Погода Макушино : погода сейчас, прогноз погоды и архив. Всё, что Вы хотите узнать о погоде Макушино!

Поиск расширенной информации на нашем сайте:

Другие новости

Новости СМИ2

Главная страница сайта

Новости сайта

02.10.2013

Напоминаем, что на нашем новом сайте вы можете получить высокодетализированные прогнозы погоды по пунктам России, СНГ и мира (включающие важные для авиации метеовеличины, такие как направление и скорость ветра, видимость, явления погоды, количество и форма облачности, нижняя и верхняя граница облачности), а также ознакомиться с разнообразными материалами по авиационной метеорологии и подборкой полезных ссылок на эту тему.

Сайт Метеоцентр.Азия посвящён разработке технологий оптимизации авиаметеорологического обслуживания, включая проектирование и перспективное создание нескольких автоматизированных авиаметеорологических систем:
- система выпуска высокодетальных прогностических карт явлений погоды для нижнего воздушного пространства по России и ближнему зарубежью;
- система верификации прогнозов TAF (выпускаемых синоптиками официальных АМСГ РФ и ближнего зарубежья) и AUTOTAF (выпускаемых сайтом Метеоцентр.Азия) - выявление ошибок, онлайн-сопоставление с фактической погодой METAR, автоматическое внесение коррективов в прогнозы при резком отклонении фактической погоды от прогноза, подсчёт оправдываемости прогнозов по элементам и в целом;
- система обработки, анализа и отображения авиаметеорологической информации для применения провайдерами метеорологической информации.

Рекомендуем: юрист недвижимость в Москве

Погода Макушино - сегодня

Время (UTC), дата Ветер
(°,м/с) 
Видим.   Явления Облачность Т
(°С)
Тd
(°С)
f(%) Тe
(°С)
Pmin
(гПа)
dP
(гПа)
Po
(мм)
O2
(г/м3)
Тmin Tmax R s Состояние
почвы
15 18.06.17 220 (ЮЗ) 9-13{20}  20000 м  {гроза, ливн. осадки}  8/8 600 м кучево-дожд. 
[Cb cap]
+17.9 +12.9 73 +23  997  5.4  736  276    +28.5  0.8     
18 18.06.17 220 (ЮЗ) 20000 м  {гроза}  9/9 600 м кучево-дожд. 
[Cb cap]
+16.2 +12.1 77 +20  998.7  1.6  737  278           
00 19.06.17 200 (Ю) 6{12}  20000 м  в посл. час ливневой дождь  8/3 600 м кучево-дожд., верхняя 
[Cb cap|Ci sp]
+15 +12 82 +18  999.4  0.5  737  279           
03 19.06.17 200 (Ю) 7-11{11}  20000 м    3/0 верхняя 
[Ci fib]
+17.4 +12 71 +21  999.5  0.3  738  277  +14.7    0.3    мокрая 
06 19.06.17 210 (ЮЗ) 10-16{16}  20000 м    5/5 1000 м 
[Cu med, cong]
+20.6 +10 51 +22  999.4  738  275           
12 19.06.17 220 (ЮЗ) 8-13{18}  20000 м    6/6 1000 м кучево-дожд. 
[Cb cap]
+22.7 +8.3 40 +23  999.4  738  273           
18 19.06.17 210 (ЮЗ) 5{13}  20000 м    5/3 1000 м верхняя 
[Sc|Ci sp]
+18.5 +10.1 58 +21  999.6  0.3  738  277           
21 19.06.17 190 (Ю) 20000 м    3/3 1000 м 
[Sc]
+16.3 +11 71 +19  999.5  -0.2  737  278           
00 20.06.17 180 (Ю) 20000 м    ясно 
+14.7 +10.9 78 +18  999.8  0.1  738  280           
06 20.06.17 220 (ЮЗ) 7-12{12}  20000 м    5/3 1000 м верхняя 
[Cu med, cong|Ci sp]
+21.7 +10.3 48 +24  999.2  0.1  737  273           
12 20.06.17 340 (С) 3{13}  20000 м    9/9 600 м кучево-дожд. 
[Cb cap]
+20.9 +11.9 56 +25  999.4  0.4  738  274           
18 20.06.17 170 (Ю) 20000 м  в посл. час гроза{ливн. осадки}  8/8 600 м кучево-дожд. 
[Cb cap]
+16 +11.5 75 +21  999.1  0.1  737  278           
21 20.06.17 190 (Ю) 20000 м    8/4 1000 м кучево-дожд., верхняя 
[Cb cap|Ci sp]
+14.9 +11.2 79 +18  998.5  -0.7  737  279           
00 21.06.17 180 (Ю) 20000 м    4/0 верхняя 
[Ci fib]
+14.5 +11.6 83 +19  998.2  -0.3  736  280           
03 21.06.17 190 (Ю) 20000 м    3/3 1000 м 
[Sc]
+19 +12.9 68 +25  997.7  -0.2  736  275  +14        сухая 
06 21.06.17 190 (Ю) 7-11{12}  20000 м    8/4 1000 м верхняя 
[Cu med, cong|Ci fib]
+22.4 +11.2 49 +26  997.2  -0.4  736  272           
12 21.06.17 220 (ЮЗ) 6-10{15}  20000 м  {гроза, ливн. осадки}  8/6 1000 м кучево-дожд., верхняя 
[Cb cap|Ci fib]
+19.3 +10.9 58 +22  997.2  0.7  736  275           
18 21.06.17 220 (ЮЗ) 20000 м  {ливн. осадки}  9/9 1000 м кучево-дожд. 
[Cb cap]
+14.9 +12.4 85 +20  999.4  1.3  737  279           
21 21.06.17 230 (ЮЗ) 20000 м    3/0 верхняя 
[Ci sp]
+13.4 +11.7 89 +17  1000.3  0.7  738  281           
00 22.06.17 260 (З) 20000 м    ясно 
+14 +12.4 90 +20  1001.7  1.4  739  281           
06 22.06.17 280 (З) 20000 м    5/1 1000 м верхняя 
[Cu hum|Ci sp]
+22.1 +11.4 51 +25  1004.4  1.4  741  274           
09 22.06.17 290 (З) 20000 м    9/8 1000 м верхняя 
[Cu med, cong|Ci fib]
+24.4 +12.5 47 +29  1004.5  0.4  742  272           
12 22.06.17 240 (ЮЗ) 20000 м    6/4 1000 м верхняя 
[Cu med, cong|Ci fib]
+25.1 +10.2 39 +27  1004.8  0.3  742  272           
15 22.06.17 250 (З) 20000 м    ясно 
+23.3 +11 46 +26  1005.6  0.6  742  274    +25.5       
18 22.06.17 180 (Ю) 20000 м    ясно 
+15.8 +12 78 +21  1006.6  0.6  743  281           
Время (UTC), дата Ветер
(°,м/с) 
Видим.   Явления Облачность Т
(°С)
Тd
(°С)
f(%) Тe
(°С)
Pmin
(гПа)
dP
(гПа)
Po
(мм)
O2
(г/м3)
Тmin Tmax R s Состояние
почвы

Для получения пояснительной информации подведите курсор к названию столбца.

ПОГОДА Макушино - архив

Всё, что Вы хотите узнать о погоде Макушино - удобно и подробно!

Выберите нужную дату (начиная с 1 января 2015* года) и нажмите кнопку "Найти".
Будут отображены архивные сводки погоды по пункту Макушино, начиная с указанной даты.


Отображать данные в формате CSV (для использования в таблицах Excel)


Внимание! Наш архив погоды предназначен исключительно для личного некоммерческого использования в познавательных целях. Если Вам необходимы официальные справки о состоянии погоды (для производственных, юридических, коммерческих и т.п. целей), обращайтесь в органы Росгидромета.

*Примечание: данная дата относится к архиву по метеостанциям СССР (Россия, СНГ, Балтия).
Архив по метеостанциям Зарубежной Европы и Азии (кроме Китая) хранится 10 дней, по другим регионам земного шара (Китай, Африка, Америка, Австралия, Океания) - 1 день.

Макушино - район местоположения метеостанции


Название, широта, долгота, высота метеостанции:
Макушино 55.2°ш. 67.3°д. 140 м над ур. моря [Российская Федерация]

Дополнительная информация

В oтличие oт бoльшинства пoгoдных сайтoв мы публикуем пoдрoбную метеoинфoрмацию в детальнoм прoфессиoнальнoм фoрмате.

Характеристики температуры и влажнoсти вoздуха измеряются на высoте 2 м в тени вдали oт зданий и деревьев.
Скoрoсть ветра измеряется на высoте 10 м (на урoвне рoста челoвека скoрoсть ветра ниже в 1.5-2 раза). Если метеoстанция нахoдится в гoрoде или в лесу, тo скoрoсть ветра занижена на 2-4 м/с пo сравнению с oткрытым местoм. Скoрoсть ветра над акватoриями крупных рек и oзёр, а также на вершинах хoлмoв на 2-5 м/с выше, чем в oбычных услoвиях.
Атмoсфернoе давление в разных тoчках местнoсти мoжет значительнo oтличаться oт давления на метеoстанции, в зависимoсти oт услoвий рельефа (при пoдъёме на 10 м давление пoнижается примернo на 1 мм рт.ст.).